Location: Bonningues
(50.7927°N, 2.0150°E)
Time: 08:21:58
(UTC+00:00)

Cosmos 841 Rocket - Pass Details

Date: 08 August 2020
Orbit: 746 x 773 km, 74.0° (Epoch: 26 September)

Event Time Altitude Azimuth Distance (km) Brightness Sun altitude
Rises 21:31:49 0° 338° (NNW) 3,227 8.3 -16.2°
Reaches altitude 10° 21:34:19 10° 345° (NNW) 2,302 7.1 -16.4°
Maximum altitude 21:39:17 43° 57° (ENE) 1,065 4.2 -16.9°
Enters shadow 21:41:57 25° 114° (ESE) 1,527 4.6 -17.1°
